Location: Notre Dame Regional High School Observatory
(37.3056°N, 89.6097°W)
Time: 16:39:58
(UTC-05:00)

Okean-O - Visible Passes

Search period start: 23 April 2017 00:00
Search period end: 03 May 2017 00:00
Orbit: 640 x 641 km, 98.2° (Epoch: 22 April)

Date Brightness Start Highest point End Pass type
(mag) Time Alt. Az. Time Alt. Az. Time Alt. Az.
23 Apr 5.1 04:48:31 10° NE 04:51:54 21° E 04:55:17 10° SE visible
24 Apr 4.1 05:11:26 10° NNE 05:15:36 38° E 05:19:43 10° SSE visible
25 Apr 2.9 05:34:45 10° NNE 05:39:12 73° ESE 05:43:37 10° S visible
26 Apr 5.7 04:24:54 10° ENE 04:25:54 11° E 04:26:54 10° ESE visible
27 Apr 5.2 04:46:24 10° NE 04:49:40 20° E 04:52:55 10° SE visible
28 Apr 4.2 05:09:16 10° NNE 05:13:22 36° E 05:17:25 10° SSE visible
29 Apr 3.1 05:32:32 10° NNE 05:36:58 68° ESE 05:41:22 10° S visible
01 May 5.3 04:44:17 10° NE 04:47:24 19° E 04:50:32 10° SE visible
02 May 4.4 05:07:04 10° NNE 05:11:07 33° E 05:15:07 10° SSE visible
